Regional Weather Roundup
Issued by NWS

Home | Current Version | Previous Version | Graphics & Text | Print | Product List | Glossary On
Versions: 1 2 3 4 5 6 7 8 9 10 11 12 13 14 15 16 17 18 19 20 21 22 23 24 25 26 27 28 29 30 31 32 33 34 35 36 37 38 39 40 41 42 43 44 45 46 47 48 49 50
000
ASUS43 KDTX 240810
RWRMI
MICHIGAN HOURLY REGIONAL WEATHER ROUNDUP
NATIONAL WEATHER SERVICE DETROIT/PONTIAC MI
400 AM EDT MON JUL 24 2017

NOTE: "FAIR" INDICATES FEW OR NO CLOUDS BELOW 12,000 FEET WITH NO
SIGNIFICANT WEATHER AND/OR OBSTRUCTION TO VISIBILITY.

MIZ047>049-052>055-059>063-066>070-074>076-081>083-240900-
SOUTHEAST LOWER MICHIGAN

CITY           SKY/WX    TMP DP  RH WIND       PRES   REMARKS
ADRIAN         PTCLDY    67  62  84 N6        29.83S
ALMA           CLEAR     60  58  91 W9        29.88R
ANN ARBOR      CLEAR     66  64  93 NW9       29.82R
BAD AXE        CLOUDY    62  60  96 NW10      29.82S
CARO           CLOUDY    63  60  90 N7        29.83R
DETROIT CITY   CLEAR     69  63  81 N8        29.80S
DETROIT        CLOUDY    67  64  90 NW7       29.81S
FLINT          CLOUDY    64  61  90 NW9       29.84R
GROSSE ILE     CLEAR     67  64  87 NW5       29.78S
HILLSDALE      CLOUDY    64  61  88 NW5       29.85S
HOWELL         MOCLDY    64  61  89 N6        29.84R

CITY           SKY/WX    TMP DP  RH WIND       PRES   REMARKS
JACKSON        CLEAR     64  61  90 NW6       29.85R
LAMBERTVILLE   MOCLDY    67  65  91 CALM      29.81R
LANSING        MOCLDY    64  60  87 N8        29.86R
LAPEER         CLOUDY    64  63  96 CALM      29.83R
MASON          PTCLDY    65  62  91 N5        29.86R
MONROE         PTCLDY    66  64  92 CALM      29.79S
MT. CLEMENS    CLEAR     65  64  96 NW3       29.79R
PONTIAC        PTCLDY    66  63  90 N8        29.81S
PORT HOPE        N/A     64  60  87 NW9       29.78S
PORT HURON     MOCLDY    64  63  94 NW6       29.80S
TRI CITIES     CLOUDY    64  61  90 N10       29.86R
MIDLAND        CLOUDY    64  58  81 N7        29.86R
TROY           CLEAR     68  63  84 NW8       29.82S
SAGINAW HB     MOCLDY    63  59  88 N9        29.84R
$$
MIZ043>046-050>051-056>058-064>065-071>073-077>080-240900-
SOUTHWEST LOWER MICHIGAN

CITY           SKY/WX    TMP DP  RH WIND       PRES   REMARKS
BATTLE CREEK   CLEAR     65  63  93 NW6       29.88R
BENTON HARBOR  MOCLDY    68  61  78 VRB5      29.88S
BIG RAPIDS     CLOUDY    62  56  80 NW5       29.90R
COLDWATER      CLEAR     64  64 100 W3        29.86R
FREMONT        FAIR      60  60  99 N5        29.90R
HOLLAND        CLEAR     64  60  87 VRB5      29.90R
IONIA          CLOUDY    64  59  86 N8        29.87R
KALAMAZOO      CLEAR     64  59  83 N6        29.88R
LUDINGTON      CLOUDY    61  59  93 N5        29.92R
MARSHALL       CLEAR     65  64  99 NW3       29.86R
MOUNT PLEASANT PTCLDY    63  55  77 N6        29.87S
MUSKEGON       MOCLDY    65  61  87 N7        29.91R
SOUTH HAVEN    PTCLDY    67  64  92 N7        29.89R
$$
MIZ016>042-240900-
NORTHERN LOWER MICHIGAN

CITY           SKY/WX    TMP DP  RH WIND       PRES   REMARKS
ALPENA         LGT RAIN  59  59 100 N12       29.88S FOG
BEAVER ISLAND  CLEAR     57  54  87 CALM      29.97S
BELLAIRE       CLOUDY    60  54  79 N7        29.94R
CADILLAC       CLOUDY    60  55  82 NE6       29.93R
CHARLEVOIX     MOCLDY    60  55  82 NE10G17   29.97S
FRANKFORT      CLOUDY    63  56  79 N5        29.94R
GAYLORD        CLOUDY    57  53  86 VRB6      29.93R
GRAYLING       CLOUDY    57  55  91 N8        29.92S
HARBOR SPRINGS CLOUDY    59  54  83 NE6       29.94S
HOUGHTON LAKE  CLOUDY    58  55  90 N7        29.91S
MANISTEE       CLOUDY    63  57  81 N7        29.93R
OSCODA         DRIZZLE   60  58  95 NW14      29.84R
PELLSTON       CLOUDY    59  55  87 N9        29.95S
ROGERS CITY    CLOUDY    59  56  91 NE16G23   29.91S
TRAVERSE CITY  CLOUDY    62  55  77 NE9       29.92R
$$
MIZ007>008-015-240900-
EASTERN UPPER MICHIGAN

CITY           SKY/WX    TMP DP  RH WIND       PRES   REMARKS
KINROSS        CLEAR     52  50  93 N7        29.97S
MACKINAC ISLAN CLOUDY    58  56  91 NE9       29.94S
NEWBERRY       CLEAR     51  50  97 N5        29.99R
S. S. MARIE    CLEAR     55  50  83 N5        29.96S
MUNISING         N/A     57  56  96 NW7       30.01S
$$
MIZ004>006-011>014-085-240900-
CENTRAL UPPER MICHIGAN

CITY           SKY/WX    TMP DP  RH WIND       PRES   REMARKS
MANISTIQUE     CLEAR     51  48  89 N8        29.99R
ESCANABA       CLEAR     53  52  96 N5        30.00R
MENOMINEE      CLOUDY    60  55  83 N7        30.01R
SAWYER-GWINN   CLEAR     46  45  97 N5        30.04R
$$
MIZ001>003-009>011-084-240900-
WESTERN UPPER MICHIGAN

CITY           SKY/WX    TMP DP  RH WIND       PRES   REMARKS
IRON MOUNTAIN  CLEAR     51  48  89 VRB3      30.02S
HOUGHTON       CLEAR     47  44  90 NW7       30.04S
COPPER HARBOR    N/A     50  47  89 W5        30.03S
IRONWOOD       CLOUDY    55  55 100 CALM      30.07R
$$

ABBREVIATIONS USED IN REMARKS
   TC - TEMPERATURE IN CELSIUS
  WCI - WIND CHILL INDEX
   HX - HEAT INDEX
  VSB - VISIBILITY





USA.gov is the U.S. government's official web portal to all federal, state and local government web resources and services.